Location: Harbor View
(36.2448°N, 86.5797°W)
Time: 07:54:24
(UTC+00:00)

Cosmos 1892 - Pass Details

Date: 29 October 2020
Orbit: 504 x 524 km, 82.5° (Epoch: 04 December)

Event Time Altitude Azimuth Distance (km) Brightness Sun altitude
Rises 23:16:42 0° 9° (N) 2,663 6.1 -5.5°
Reaches altitude 10° 23:19:16 10° 26° (NNE) 1,770 5.0 -6.0°
Maximum altitude 23:22:14 21° 76° (ENE) 1,229 4.0 -6.6°
Drops below altitude 10° 23:25:11 10° 126° (SE) 1,758 5.0 -7.2°
Sets 23:27:43 0° 143° (SE) 2,639 6.0 -7.7°
